Location: Peterborough
(44.3091°N, 78.3197°W)
Time: 17:19:24
(UTC-04:00)

Explorer 7 - Pass Details

Date: 27 March 2023
Orbit: 477 x 653 km, 50.3° (Epoch: 04 June)

Event Time Altitude Azimuth Distance (km) Brightness Sun altitude
Rises 16:25:45 0° 214° (SW) 2,939 11.4 31.5°
Reaches altitude 10° 16:28:15 10° 206° (SSW) 2,013 10.7 31.1°
Maximum altitude 16:32:28 35° 140° (SE) 998 8.3 30.5°
Drops below altitude 10° 16:36:31 10° 75° (ENE) 1,932 9.2 29.9°
Sets 16:38:52 0° 66° (ENE) 2,803 9.9 29.5°
